Time,TemperatureF,DewpointF,PressureIn,WindDirection,WindDirectionDegrees,WindSpeedMPH,WindSpeedGustMPH,Humidity,HourlyPrecipIn,Conditions,Clouds,dailyrainin,SoftwareType,DateUTC
2014-01-28 00:00:00,60.6,59.7,30.05,West,270,0.0,0.0,96,0.00,,,0.00,JAVA,2014-01-28 05:00:00,
2014-01-28 00:01:00,60.7,59.7,30.05,West,270,0.0,0.0,96,0.00,,,0.00,JAVA,2014-01-28 05:01:00,
2014-01-28 00:02:00,60.6,59.7,30.05,West,270,0.0,0.0,96,0.00,,,0.00,JAVA,2014-01-28 05:02:00,
2014-01-28 00:04:00,60.7,59.6,30.05,West,270,0.0,0.0,96,0.00,,,0.00,JAVA,2014-01-28 05:04:00,
2014-01-28 00:06:00,60.8,59.6,30.04,West,270,0.0,0.0,96,0.00,,,0.00,JAVA,2014-01-28 05:06:00,
2014-01-28 00:11:00,60.6,59.5,30.05,West,270,0.0,0.0,96,0.00,,,0.00,JAVA,2014-01-28 05:11:00,
2014-01-28 00:12:00,60.6,59.5,30.05,West,270,0.0,0.0,96,0.00,,,0.00,JAVA,2014-01-28 05:12:00,
2014-01-28 00:18:00,60.4,59.5,30.05,West,270,0.0,0.0,96,0.00,,,0.00,JAVA,2014-01-28 05:18:00,
2014-01-28 00:23:00,60.1,59.4,30.04,West,270,0.0,0.0,96,0.00,,,0.00,JAVA,2014-01-28 05:23:00,
2014-01-28 00:28:00,60.1,59.3,30.04,West,270,0.0,0.0,96,0.00,,,0.00,JAVA,2014-01-28 05:28:00,
2014-01-28 00:33:00,60.2,59.2,30.04,West,270,0.0,0.0,96,0.00,,,0.00,JAVA,2014-01-28 05:33:00,
2014-01-28 00:38:00,60.6,59.2,30.04,West,270,0.0,0.0,96,0.00,,,0.00,JAVA,2014-01-28 05:38:00,
2014-01-28 00:43:00,60.7,59.3,30.04,West,270,0.0,0.0,96,0.00,,,0.00,JAVA,2014-01-28 05:43:00,
2014-01-28 00:48:00,60.9,59.3,30.04,WSW,247,0.0,0.0,97,0.00,,,0.00,JAVA,2014-01-28 05:48:00,
2014-01-28 00:53:00,61.5,59.4,30.04,WSW,247,0.0,0.0,97,0.00,,,0.00,JAVA,2014-01-28 05:53:00,
2014-01-28 00:58:00,61.5,59.5,30.04,WSW,247,0.0,0.0,98,0.00,,,0.00,JAVA,2014-01-28 05:58:00,
2014-01-28 01:03:00,61.1,59.7,30.04,WSW,247,0.0,0.0,98,0.00,,,0.00,JAVA,2014-01-28 06:03:00,
2014-01-28 01:08:00,60.8,59.9,30.04,WSW,247,0.0,0.0,98,0.00,,,0.00,JAVA,2014-01-28 06:08:00,
2014-01-28 01:13:00,60.7,60.1,30.04,WSW,247,0.0,0.0,99,0.00,,,0.00,JAVA,2014-01-28 06:13:00,
2014-01-28 01:18:00,60.8,60.2,30.04,WSW,247,0.0,0.0,99,0.00,,,0.00,JAVA,2014-01-28 06:18:00,
2014-01-28 01:23:00,60.9,60.4,30.04,WSW,247,0.0,0.0,100,0.00,,,0.00,JAVA,2014-01-28 06:23:00,
2014-01-28 01:28:00,61.1,60.5,30.04,WSW,247,0.0,0.0,100,0.00,,,0.00,JAVA,2014-01-28 06:28:00,
2014-01-28 01:33:00,61.1,60.6,30.04,WSW,247,0.0,0.0,100,0.00,,,0.00,JAVA,2014-01-28 06:33:00,
2014-01-28 01:38:00,61.1,60.7,30.04,WSW,247,0.0,0.0,100,0.00,,,0.00,JAVA,2014-01-28 06:38:00,
2014-01-28 01:43:00,61.1,60.8,30.04,WSW,247,0.0,0.0,100,0.00,,,0.00,JAVA,2014-01-28 06:43:00,
2014-01-28 01:48:00,61.0,60.8,30.04,WSW,247,0.0,0.0,100,0.00,,,0.00,JAVA,2014-01-28 06:48:00,
2014-01-28 01:54:00,61.0,60.9,30.04,WSW,247,0.0,0.0,101,0.00,,,0.00,JAVA,2014-01-28 06:54:00,
2014-01-28 01:59:00,61.0,61.0,30.03,SW,225,0.0,0.0,101,0.00,,,0.00,JAVA,2014-01-28 06:59:00,
2014-01-28 02:04:00,61.1,61.1,30.03,SW,225,0.0,0.0,100,0.00,,,0.00,JAVA,2014-01-28 07:04:00,
2014-01-28 02:09:00,61.3,61.2,30.03,SW,225,0.0,0.0,100,0.00,,,0.00,JAVA,2014-01-28 07:09:00,
2014-01-28 02:14:00,61.6,61.2,30.03,SW,225,0.0,0.0,100,0.00,,,0.00,JAVA,2014-01-28 07:14:00,
2014-01-28 02:19:00,61.3,61.2,30.03,SW,225,0.0,0.0,100,0.00,,,0.00,JAVA,2014-01-28 07:19:00,
2014-01-28 02:24:00,60.8,61.2,30.03,SW,225,0.0,0.0,100,0.00,,,0.00,JAVA,2014-01-28 07:24:00,
2014-01-28 02:30:00,60.5,61.2,30.02,SW,225,0.0,0.0,100,0.00,,,0.00,JAVA,2014-01-28 07:30:00,
2014-01-28 02:35:00,60.4,61.1,30.03,SW,225,0.0,0.0,100,0.00,,,0.00,JAVA,2014-01-28 07:35:00,
2014-01-28 02:40:00,60.4,60.9,30.03,SW,225,0.0,0.0,100,0.00,,,0.00,JAVA,2014-01-28 07:40:00,
2014-01-28 02:45:00,60.2,60.8,30.02,SW,225,0.0,0.0,100,0.00,,,0.00,JAVA,2014-01-28 07:45:00,
2014-01-28 02:50:00,60.1,60.7,30.02,SW,225,0.0,0.0,100,0.00,,,0.00,JAVA,2014-01-28 07:50:00,
2014-01-28 02:55:00,60.0,60.5,30.02,SW,225,0.0,0.0,99,0.00,,,0.00,JAVA,2014-01-28 07:55:00,
2014-01-28 03:00:00,59.7,60.3,30.03,SW,225,0.0,0.0,99,0.00,,,0.00,JAVA,2014-01-28 08:00:00,
2014-01-28 03:05:00,59.5,60.0,30.02,SW,225,0.0,0.0,99,0.00,,,0.00,JAVA,2014-01-28 08:05:00,
2014-01-28 03:10:00,59.5,59.8,30.03,WSW,247,0.0,0.0,100,0.00,,,0.00,JAVA,2014-01-28 08:10:00,
2014-01-28 03:15:00,59.5,59.7,30.03,WSW,247,0.0,0.0,100,0.00,,,0.00,JAVA,2014-01-28 08:15:00,
2014-01-28 03:21:00,59.6,59.6,30.03,WSW,247,0.0,0.0,100,0.00,,,0.00,JAVA,2014-01-28 08:21:00,
2014-01-28 03:26:00,59.6,59.6,30.03,WSW,247,0.0,0.0,101,0.00,,,0.00,JAVA,2014-01-28 08:26:00,
2014-01-28 03:31:00,59.6,59.5,30.03,WSW,247,0.0,0.0,101,0.00,,,0.00,JAVA,2014-01-28 08:31:00,
2014-01-28 03:36:00,59.6,59.5,30.03,WSW,247,0.0,0.0,102,0.00,,,0.00,JAVA,2014-01-28 08:36:00,
2014-01-28 03:41:00,59.3,59.6,30.03,WSW,247,0.0,0.0,102,0.00,,,0.00,JAVA,2014-01-28 08:41:00,
2014-01-28 03:46:00,59.3,59.6,30.03,WSW,247,0.0,0.0,103,0.00,,,0.00,JAVA,2014-01-28 08:46:00,
2014-01-28 03:51:00,59.0,59.7,30.03,WSW,247,0.0,0.0,103,0.00,,,0.00,JAVA,2014-01-28 08:51:00,
2014-01-28 03:56:00,58.8,59.8,30.02,WSW,247,0.0,0.0,103,0.00,,,0.00,JAVA,2014-01-28 08:56:00,
2014-01-28 04:01:00,58.8,59.8,30.02,WSW,247,0.0,0.0,103,0.00,,,0.00,JAVA,2014-01-28 09:01:00,
2014-01-28 04:06:00,58.9,59.8,30.02,WSW,247,0.0,0.0,103,0.00,,,0.00,JAVA,2014-01-28 09:06:00,
2014-01-28 04:11:00,59.0,59.8,30.02,WSW,247,0.0,0.0,103,0.00,,,0.00,JAVA,2014-01-28 09:11:00,
2014-01-28 04:16:00,59.1,59.7,30.03,WSW,247,0.0,0.0,103,0.00,,,0.00,JAVA,2014-01-28 09:16:00,
2014-01-28 04:21:00,59.1,59.7,30.03,WSW,247,0.0,0.0,103,0.00,,,0.00,JAVA,2014-01-28 09:21:00,
2014-01-28 04:26:00,59.3,59.7,30.03,WSW,247,0.0,0.0,103,0.00,,,0.00,JAVA,2014-01-28 09:26:00,
2014-01-28 04:31:00,59.3,59.7,30.03,WSW,247,0.0,0.0,103,0.00,,,0.00,JAVA,2014-01-28 09:31:00,
2014-01-28 04:37:00,59.2,59.8,30.03,WSW,247,0.0,0.0,104,0.00,,,0.00,JAVA,2014-01-28 09:37:00,
2014-01-28 04:42:00,59.0,59.9,30.03,WSW,247,0.0,0.0,104,0.00,,,0.00,JAVA,2014-01-28 09:42:00,
2014-01-28 04:47:00,59.0,59.9,30.04,WSW,247,0.0,0.0,104,0.00,,,0.00,JAVA,2014-01-28 09:47:00,
2014-01-28 04:52:00,59.0,60.0,30.04,WSW,247,0.0,0.0,104,0.00,,,0.00,JAVA,2014-01-28 09:52:00,
2014-01-28 04:57:00,59.1,60.0,30.03,WSW,247,0.0,0.0,104,0.00,,,0.00,JAVA,2014-01-28 09:57:00,
2014-01-28 05:02:00,59.0,60.1,30.04,SW,225,0.0,0.0,104,0.00,,,0.00,JAVA,2014-01-28 10:02:00,
2014-01-28 05:07:00,58.9,60.1,30.04,WSW,247,0.0,0.0,104,0.00,,,0.00,JAVA,2014-01-28 10:07:00,
2014-01-28 05:12:00,58.8,60.1,30.04,WSW,247,0.0,0.0,104,0.00,,,0.00,JAVA,2014-01-28 10:12:00,
2014-01-28 05:17:00,58.8,60.0,30.04,WSW,247,0.0,0.0,104,0.00,,,0.00,JAVA,2014-01-28 10:17:00,
2014-01-28 05:22:00,58.6,60.0,30.04,WSW,247,0.0,0.0,104,0.00,,,0.00,JAVA,2014-01-28 10:22:00,
2014-01-28 05:27:00,58.4,60.0,30.04,WSW,247,0.0,0.0,104,0.00,,,0.00,JAVA,2014-01-28 10:27:00,
2014-01-28 05:32:00,58.2,59.9,30.04,WSW,247,0.0,0.0,104,0.00,,,0.00,JAVA,2014-01-28 10:32:00,
2014-01-28 05:37:00,58.2,59.8,30.05,WSW,247,0.0,0.0,104,0.00,,,0.00,JAVA,2014-01-28 10:37:00,
2014-01-28 05:42:00,58.2,59.7,30.05,WSW,247,0.0,0.0,104,0.00,,,0.00,JAVA,2014-01-28 10:42:00,
2014-01-28 05:48:00,57.9,59.6,30.05,WSW,247,0.0,0.0,104,0.00,,,0.00,JAVA,2014-01-28 10:48:00,
2014-01-28 05:53:00,57.5,59.5,30.05,WSW,247,0.0,0.0,104,0.00,,,0.00,JAVA,2014-01-28 10:53:00,
2014-01-28 05:58:00,57.3,59.3,30.05,WSW,247,0.0,0.0,104,0.00,,,0.00,JAVA,2014-01-28 10:58:00,
2014-01-28 06:03:00,57.2,59.1,30.05,WSW,247,0.0,0.0,104,0.00,,,0.00,JAVA,2014-01-28 11:03:00,
2014-01-28 06:08:00,57.1,59.0,30.05,WSW,247,0.0,0.0,104,0.00,,,0.00,JAVA,2014-01-28 11:08:00,
2014-01-28 06:13:00,57.0,58.8,30.05,WSW,247,0.0,0.0,104,0.00,,,0.00,JAVA,2014-01-28 11:13:00,
2014-01-28 06:18:00,56.8,58.6,30.06,WSW,247,0.0,0.0,104,0.00,,,0.00,JAVA,2014-01-28 11:18:00,
2014-01-28 06:23:00,56.6,58.4,30.06,WSW,247,0.0,0.0,104,0.00,,,0.00,JAVA,2014-01-28 11:23:00,
2014-01-28 06:28:00,56.8,58.2,30.05,WSW,247,0.0,0.0,104,0.00,,,0.00,JAVA,2014-01-28 11:28:00,
2014-01-28 06:33:00,56.6,58.0,30.05,WSW,247,0.0,0.0,104,0.00,,,0.00,JAVA,2014-01-28 11:33:00,
2014-01-28 06:38:00,56.5,57.9,30.06,WSW,247,0.0,0.0,104,0.00,,,0.00,JAVA,2014-01-28 11:38:00,
2014-01-28 06:43:00,56.4,57.8,30.06,WSW,247,0.0,0.0,104,0.00,,,0.00,JAVA,2014-01-28 11:43:00,
2014-01-28 06:48:00,56.4,57.7,30.07,WSW,247,0.0,0.0,104,0.00,,,0.00,JAVA,2014-01-28 11:48:00,
2014-01-28 06:53:00,56.2,57.6,30.07,WSW,247,0.0,0.0,104,0.00,,,0.00,JAVA,2014-01-28 11:53:00,
2014-01-28 06:58:00,56.2,57.5,30.06,WSW,247,0.0,0.0,104,0.00,,,0.00,JAVA,2014-01-28 11:58:00,
2014-01-28 07:04:00,56.3,57.4,30.07,WSW,247,0.0,0.0,104,0.00,,,0.00,JAVA,2014-01-28 12:04:00,
2014-01-28 07:09:00,56.4,57.3,30.07,WSW,247,0.0,0.0,104,0.00,,,0.00,JAVA,2014-01-28 12:09:00,
2014-01-28 07:14:00,56.6,57.3,30.07,WSW,247,0.0,0.0,104,0.00,,,0.00,JAVA,2014-01-28 12:14:00,
2014-01-28 07:19:00,56.6,57.3,30.07,WSW,247,0.0,0.0,104,0.00,,,0.00,JAVA,2014-01-28 12:19:00,
2014-01-28 07:24:00,56.5,57.3,30.07,WSW,247,0.0,0.0,104,0.00,,,0.00,JAVA,2014-01-28 12:24:00,
2014-01-28 07:29:00,56.3,57.3,30.08,WSW,247,0.0,0.0,104,0.00,,,0.00,JAVA,2014-01-28 12:29:00,
2014-01-28 07:34:00,56.2,57.3,30.08,WSW,247,0.0,0.0,104,0.00,,,0.00,JAVA,2014-01-28 12:34:00,
2014-01-28 07:39:00,56.3,57.3,30.08,WSW,247,0.0,0.0,104,0.00,,,0.00,JAVA,2014-01-28 12:39:00,
2014-01-28 07:44:00,56.9,57.4,30.09,WSW,247,0.0,0.0,104,0.00,,,0.00,JAVA,2014-01-28 12:44:00,
2014-01-28 07:49:00,57.5,57.5,30.09,WSW,247,0.0,0.0,104,0.00,,,0.00,JAVA,2014-01-28 12:49:00,
2014-01-28 07:54:00,58.2,57.7,30.09,SW,225,0.0,0.0,104,0.00,,,0.00,JAVA,2014-01-28 12:54:00,
2014-01-28 07:59:00,58.9,57.9,30.09,SW,225,0.0,0.0,105,0.00,,,0.00,JAVA,2014-01-28 12:59:00,
2014-01-28 08:04:00,59.2,58.2,30.09,SW,225,0.0,0.0,105,0.00,,,0.00,JAVA,2014-01-28 13:04:00,
2014-01-28 08:09:00,59.7,58.6,30.09,SW,225,0.0,0.0,105,0.00,,,0.00,JAVA,2014-01-28 13:09:00,
2014-01-28 08:15:00,59.8,59.1,30.09,SW,225,0.0,0.0,105,0.00,,,0.00,JAVA,2014-01-28 13:15:00,
2014-01-28 08:20:00,59.9,59.5,30.09,SW,225,0.0,0.0,105,0.00,,,0.00,JAVA,2014-01-28 13:20:00,
2014-01-28 08:25:00,60.0,60.0,30.09,SW,225,0.0,0.0,105,0.00,,,0.00,JAVA,2014-01-28 13:25:00,
2014-01-28 08:30:00,60.1,60.4,30.10,SW,225,0.0,0.0,105,0.00,,,0.00,JAVA,2014-01-28 13:30:00,
2014-01-28 08:35:00,60.4,60.8,30.10,WSW,247,0.0,0.0,105,0.00,,,0.00,JAVA,2014-01-28 13:35:00,
2014-01-28 08:40:00,61.0,61.1,30.10,WSW,247,0.0,0.0,105,0.00,,,0.00,JAVA,2014-01-28 13:40:00,
2014-01-28 08:45:00,61.4,61.4,30.11,SW,225,0.0,0.0,105,0.00,,,0.00,JAVA,2014-01-28 13:45:00,
2014-01-28 08:50:00,61.3,61.6,30.11,SW,225,0.0,0.0,105,0.00,,,0.00,JAVA,2014-01-28 13:50:00,
2014-01-28 08:55:00,60.9,61.8,30.11,SW,225,0.0,0.0,105,0.00,,,0.00,JAVA,2014-01-28 13:55:00,
2014-01-28 09:00:00,61.0,62.0,30.12,WSW,247,0.0,0.0,105,0.00,,,0.00,JAVA,2014-01-28 14:00:00,
2014-01-28 09:05:00,61.4,62.1,30.11,SW,225,0.0,0.0,105,0.00,,,0.00,JAVA,2014-01-28 14:05:00,
2014-01-28 09:10:00,61.9,62.3,30.11,SW,225,0.0,0.0,105,0.00,,,0.00,JAVA,2014-01-28 14:10:00,
2014-01-28 09:15:00,62.0,62.5,30.11,SW,225,0.0,0.0,105,0.00,,,0.00,JAVA,2014-01-28 14:15:00,
2014-01-28 09:20:00,62.2,62.7,30.11,SW,225,0.0,0.0,105,0.00,,,0.00,JAVA,2014-01-28 14:20:00,
2014-01-28 09:25:00,62.3,62.8,30.11,WSW,247,0.0,0.0,105,0.00,,,0.00,JAVA,2014-01-28 14:25:00,
2014-01-28 09:31:00,62.7,62.9,30.11,SW,225,0.0,0.0,105,0.00,,,0.00,JAVA,2014-01-28 14:31:00,
2014-01-28 09:36:00,63.2,63.1,30.11,West,270,0.0,0.0,105,0.00,,,0.00,JAVA,2014-01-28 14:36:00,
2014-01-28 09:41:00,63.7,63.4,30.11,SW,225,0.0,0.0,105,0.00,,,0.00,JAVA,2014-01-28 14:41:00,
2014-01-28 09:46:00,64.0,63.7,30.11,West,270,0.0,0.0,105,0.00,,,0.00,JAVA,2014-01-28 14:46:00,
2014-01-28 09:51:00,64.3,64.0,30.12,SW,225,0.0,0.0,105,0.00,,,0.00,JAVA,2014-01-28 14:51:00,
2014-01-28 09:56:00,64.5,64.3,30.12,SSE,157,0.0,0.0,105,0.00,,,0.00,JAVA,2014-01-28 14:56:00,
2014-01-28 10:01:00,64.6,64.6,30.12,WNW,292,0.0,0.0,105,0.00,,,0.00,JAVA,2014-01-28 15:01:00,
2014-01-28 10:06:00,64.5,64.9,30.12,South,180,0.0,0.0,105,0.00,,,0.00,JAVA,2014-01-28 15:06:00,
2014-01-28 10:11:00,63.8,65.1,30.12,SE,135,0.0,0.0,104,0.00,,,0.00,JAVA,2014-01-28 15:11:00,
2014-01-28 10:16:00,64.4,65.3,30.12,West,270,0.0,0.0,104,0.00,,,0.00,JAVA,2014-01-28 15:16:00,
2014-01-28 10:21:00,64.7,65.4,30.12,SE,135,0.0,0.0,104,0.00,,,0.00,JAVA,2014-01-28 15:21:00,
2014-01-28 10:26:00,64.7,65.5,30.11,SE,135,0.0,0.0,103,0.00,,,0.00,JAVA,2014-01-28 15:26:00,
2014-01-28 10:31:00,65.2,65.6,30.11,WNW,292,0.0,0.0,103,0.00,,,0.00,JAVA,2014-01-28 15:31:00,
2014-01-28 10:36:00,65.5,65.6,30.12,WNW,292,0.0,0.0,102,0.00,,,0.00,JAVA,2014-01-28 15:36:00,
2014-01-28 10:42:00,66.2,65.7,30.12,West,270,0.0,0.0,101,0.00,,,0.00,JAVA,2014-01-28 15:42:00,
2014-01-28 10:47:00,67.2,65.8,30.12,SE,135,0.0,0.0,101,0.00,,,0.00,JAVA,2014-01-28 15:47:00,
2014-01-28 10:52:00,67.7,66.0,30.11,South,180,0.0,0.0,100,0.00,,,0.00,JAVA,2014-01-28 15:52:00,
2014-01-28 10:57:00,68.3,66.3,30.11,West,270,0.0,0.0,99,0.00,,,0.00,JAVA,2014-01-28 15:57:00,
2014-01-28 11:02:00,69.0,66.6,30.11,SW,225,0.0,0.0,98,0.00,,,0.00,JAVA,2014-01-28 16:02:00,
2014-01-28 11:07:00,69.5,66.9,30.11,SSE,157,0.0,0.0,96,0.00,,,0.00,JAVA,2014-01-28 16:07:00,
2014-01-28 11:12:00,70.3,67.2,30.11,SE,135,0.0,0.0,94,0.00,,,0.00,JAVA,2014-01-28 16:12:00,
2014-01-28 11:17:00,70.6,67.5,30.11,SE,135,0.0,0.0,92,0.00,,,0.00,JAVA,2014-01-28 16:17:00,
2014-01-28 11:22:00,70.9,67.7,30.12,SE,135,0.0,0.0,90,0.00,,,0.00,JAVA,2014-01-28 16:22:00,
2014-01-28 11:27:00,71.3,67.9,30.11,West,270,0.0,0.0,87,0.00,,,0.00,JAVA,2014-01-28 16:27:00,
2014-01-28 11:32:00,71.2,67.8,30.11,NW,315,0.0,0.0,85,0.00,,,0.00,JAVA,2014-01-28 16:32:00,
2014-01-28 11:37:00,71.3,67.6,30.11,SE,135,0.0,0.0,83,0.00,,,0.00,JAVA,2014-01-28 16:37:00,
2014-01-28 11:42:00,71.2,67.3,30.10,East,90,0.0,0.0,81,0.00,,,0.00,JAVA,2014-01-28 16:42:00,
2014-01-28 11:47:00,70.9,66.9,30.10,SSE,157,0.0,0.0,79,0.00,,,0.00,JAVA,2014-01-28 16:47:00,
2014-01-28 11:52:00,71.3,66.4,30.09,North,0,0.0,0.0,78,0.00,,,0.00,JAVA,2014-01-28 16:52:00,
2014-01-28 11:57:00,71.5,65.9,30.09,South,180,0.0,0.0,77,0.00,,,0.00,JAVA,2014-01-28 16:57:00,
2014-01-28 12:02:00,71.6,65.4,30.09,SE,135,0.0,0.0,77,0.00,,,0.00,JAVA,2014-01-28 17:02:00,
2014-01-28 12:07:00,71.0,64.9,30.09,SE,135,0.0,0.0,76,0.00,,,0.00,JAVA,2014-01-28 17:07:00,
2014-01-28 12:12:00,71.0,64.5,30.08,SE,135,0.0,0.0,76,0.00,,,0.00,JAVA,2014-01-28 17:12:00,
2014-01-28 12:17:00,70.3,64.1,30.08,South,180,0.0,0.0,76,0.00,,,0.00,JAVA,2014-01-28 17:17:00,
2014-01-28 12:22:00,70.0,63.7,30.08,NE,45,0.0,0.0,76,0.00,,,0.00,JAVA,2014-01-28 17:22:00,
2014-01-28 12:27:00,70.4,63.4,30.08,SE,135,0.0,0.0,76,0.00,,,0.00,JAVA,2014-01-28 17:27:00,
2014-01-28 12:32:00,70.9,63.2,30.08,South,180,0.0,0.0,76,0.00,,,0.00,JAVA,2014-01-28 17:32:00,
2014-01-28 12:37:00,71.5,63.1,30.08,NW,315,0.0,0.0,76,0.00,,,0.00,JAVA,2014-01-28 17:37:00,
2014-01-28 12:42:00,71.8,63.1,30.07,East,90,0.0,0.0,76,0.00,,,0.00,JAVA,2014-01-28 17:42:00,
2014-01-28 12:47:00,72.1,63.2,30.07,NNE,22,0.0,0.0,76,0.00,,,0.00,JAVA,2014-01-28 17:47:00,
2014-01-28 12:52:00,72.2,63.3,30.07,NNE,22,0.0,0.0,75,0.00,,,0.00,JAVA,2014-01-28 17:52:00,
2014-01-28 12:57:00,71.9,63.4,30.06,SE,135,0.0,0.0,75,0.00,,,0.00,JAVA,2014-01-28 17:57:00,
2014-01-28 13:02:00,71.5,63.5,30.07,South,180,0.0,0.0,75,0.00,,,0.00,JAVA,2014-01-28 18:02:00,
2014-01-28 13:07:00,71.5,63.6,30.06,East,90,0.0,0.0,74,0.00,,,0.00,JAVA,2014-01-28 18:07:00,
2014-01-28 13:12:00,71.4,63.6,30.06,East,90,0.0,0.0,74,0.00,,,0.00,JAVA,2014-01-28 18:12:00,
2014-01-28 13:17:00,71.4,63.6,30.05,East,90,0.0,0.0,74,0.00,,,0.00,JAVA,2014-01-28 18:17:00,
2014-01-28 13:23:00,71.7,63.5,30.05,ESE,112,0.0,0.0,74,0.00,,,0.00,JAVA,2014-01-28 18:23:00,
2014-01-28 13:28:00,71.5,63.4,30.05,South,180,0.0,0.0,74,0.00,,,0.00,JAVA,2014-01-28 18:28:00,
2014-01-28 13:33:00,71.7,63.2,30.04,East,90,0.0,0.0,74,0.00,,,0.00,JAVA,2014-01-28 18:33:00,
2014-01-28 13:38:00,72.2,63.1,30.04,North,0,0.0,0.0,74,0.00,,,0.00,JAVA,2014-01-28 18:38:00,
2014-01-28 13:43:00,72.5,63.1,30.04,ESE,112,0.0,0.0,74,0.00,,,0.00,JAVA,2014-01-28 18:43:00,
2014-01-28 13:48:00,72.5,63.2,30.04,SE,135,0.0,0.0,74,0.00,,,0.00,JAVA,2014-01-28 18:48:00,
2014-01-28 13:53:00,72.9,63.4,30.04,SE,135,0.0,0.0,74,0.00,,,0.00,JAVA,2014-01-28 18:53:00,
2014-01-28 13:58:00,72.9,63.6,30.03,East,90,0.0,0.0,74,0.00,,,0.00,JAVA,2014-01-28 18:58:00,
2014-01-28 14:03:00,73.2,63.7,30.02,East,90,0.0,0.0,74,0.00,,,0.00,JAVA,2014-01-28 19:03:00,
2014-01-28 14:08:00,72.4,63.9,30.02,East,90,0.0,0.0,73,0.00,,,0.00,JAVA,2014-01-28 19:08:00,
2014-01-28 14:13:00,71.3,63.9,30.02,SE,135,0.0,0.0,73,0.00,,,0.00,JAVA,2014-01-28 19:13:00,
2014-01-28 14:18:00,70.8,63.8,30.02,ESE,112,0.0,0.0,73,0.00,,,0.00,JAVA,2014-01-28 19:18:00,
2014-01-28 14:23:00,71.0,63.6,30.02,SE,135,0.0,0.0,73,0.00,,,0.00,JAVA,2014-01-28 19:23:00,
2014-01-28 14:28:00,71.3,63.4,30.02,SE,135,0.0,0.0,74,0.00,,,0.00,JAVA,2014-01-28 19:28:00,
2014-01-28 14:33:00,70.9,63.2,30.02,SSE,157,0.0,0.0,74,0.00,,,0.00,JAVA,2014-01-28 19:33:00,
2014-01-28 14:38:00,71.0,63.0,30.01,SE,135,0.0,0.0,74,0.00,,,0.00,JAVA,2014-01-28 19:38:00,
2014-01-28 14:43:00,70.9,62.8,30.01,East,90,0.0,0.0,75,0.00,,,0.00,JAVA,2014-01-28 19:43:00,
2014-01-28 14:48:00,70.9,62.6,30.01,East,90,0.0,0.0,76,0.00,,,0.00,JAVA,2014-01-28 19:48:00,
2014-01-28 14:53:00,70.9,62.6,30.01,SE,135,0.0,0.0,77,0.00,,,0.00,JAVA,2014-01-28 19:53:00,
2014-01-28 14:58:00,70.9,62.8,30.01,ESE,112,0.0,0.0,78,0.00,,,0.00,JAVA,2014-01-28 19:58:00,
2014-01-28 15:03:00,71.2,63.0,30.01,South,180,0.0,0.0,78,0.00,,,0.00,JAVA,2014-01-28 20:03:00,
2014-01-28 15:08:00,71.4,63.3,30.01,South,180,0.0,0.0,79,0.00,,,0.00,JAVA,2014-01-28 20:08:00,
2014-01-28 15:13:00,71.4,63.5,30.01,East,90,0.0,0.0,80,0.00,,,0.00,JAVA,2014-01-28 20:13:00,
2014-01-28 15:18:00,71.6,63.8,30.00,NE,45,0.0,0.0,80,0.00,,,0.00,JAVA,2014-01-28 20:18:00,
2014-01-28 15:23:00,71.7,64.2,30.00,ESE,112,0.0,0.0,80,0.00,,,0.00,JAVA,2014-01-28 20:23:00,
2014-01-28 15:28:00,71.9,64.5,30.01,ESE,112,0.0,0.0,81,0.00,,,0.00,JAVA,2014-01-28 20:28:00,
2014-01-28 15:33:00,72.2,64.8,30.01,SE,135,0.0,0.0,81,0.00,,,0.00,JAVA,2014-01-28 20:33:00,
2014-01-28 15:38:00,72.2,65.1,30.00,SE,135,0.0,0.0,80,0.00,,,0.00,JAVA,2014-01-28 20:38:00,
2014-01-28 15:43:00,71.9,65.3,30.00,ESE,112,0.0,0.0,80,0.00,,,0.00,JAVA,2014-01-28 20:43:00,
2014-01-28 15:48:00,71.5,65.4,30.00,SE,135,0.0,0.0,80,0.00,,,0.00,JAVA,2014-01-28 20:48:00,
2014-01-28 15:53:00,71.7,65.5,30.00,SE,135,0.0,0.0,80,0.00,,,0.00,JAVA,2014-01-28 20:53:00,
2014-01-28 15:58:00,72.1,65.5,30.00,ESE,112,0.0,0.0,80,0.00,,,0.00,JAVA,2014-01-28 20:58:00,
2014-01-28 16:03:00,71.9,65.6,30.00,East,90,0.0,0.0,79,0.00,,,0.00,JAVA,2014-01-28 21:03:00,
2014-01-28 16:08:00,71.3,65.5,30.00,ESE,112,0.0,0.0,79,0.00,,,0.00,JAVA,2014-01-28 21:08:00,
2014-01-28 16:13:00,70.8,65.4,30.01,SSE,157,0.0,0.0,79,0.00,,,0.00,JAVA,2014-01-28 21:13:00,
2014-01-28 16:18:00,70.6,65.2,30.00,SW,225,0.0,0.0,80,0.00,,,0.00,JAVA,2014-01-28 21:18:00,
2014-01-28 16:23:00,70.5,65.0,30.00,SE,135,0.0,0.0,81,0.00,,,0.00,JAVA,2014-01-28 21:23:00,
2014-01-28 16:28:00,70.5,64.9,30.00,SE,135,0.0,0.0,81,0.00,,,0.00,JAVA,2014-01-28 21:28:00,
2014-01-28 16:34:00,70.4,64.8,30.00,SE,135,0.0,0.0,82,0.00,,,0.00,JAVA,2014-01-28 21:34:00,
2014-01-28 16:39:00,70.3,64.7,30.01,ENE,67,0.0,0.0,82,0.00,,,0.00,JAVA,2014-01-28 21:39:00,
2014-01-28 16:44:00,70.3,64.7,30.01,SE,135,0.0,0.0,83,0.00,,,0.00,JAVA,2014-01-28 21:44:00,
2014-01-28 16:49:00,70.3,64.7,30.02,South,180,0.0,0.0,84,0.00,,,0.00,JAVA,2014-01-28 21:49:00,
2014-01-28 16:54:00,70.1,64.8,30.01,SE,135,0.0,0.0,85,0.00,,,0.00,JAVA,2014-01-28 21:54:00,
2014-01-28 16:59:00,69.9,64.9,30.01,East,90,0.0,0.0,86,0.00,,,0.00,JAVA,2014-01-28 21:59:00,
2014-01-28 17:04:00,69.8,65.0,30.02,SE,135,0.0,0.0,86,0.00,,,0.00,JAVA,2014-01-28 22:04:00,
2014-01-28 17:09:00,69.7,65.2,30.02,SE,135,0.0,0.0,87,0.00,,,0.00,JAVA,2014-01-28 22:09:00,
2014-01-28 17:14:00,69.6,65.3,30.02,SE,135,0.0,0.0,87,0.00,,,0.00,JAVA,2014-01-28 22:14:00,
2014-01-28 17:19:00,69.5,65.4,30.02,SE,135,0.0,0.0,88,0.00,,,0.00,JAVA,2014-01-28 22:19:00,
2014-01-28 17:24:00,69.4,65.6,30.02,SE,135,0.0,0.0,89,0.00,,,0.00,JAVA,2014-01-28 22:24:00,
2014-01-28 17:29:00,69.4,65.7,30.02,South,180,0.0,0.0,89,0.00,,,0.00,JAVA,2014-01-28 22:29:00,
2014-01-28 17:34:00,69.2,65.8,30.01,SE,135,0.0,0.0,90,0.00,,,0.00,JAVA,2014-01-28 22:34:00,
2014-01-28 17:39:00,69.2,65.9,30.01,SW,225,0.0,0.0,90,0.00,,,0.00,JAVA,2014-01-28 22:39:00,
2014-01-28 17:44:00,69.1,66.0,30.01,SE,135,0.0,0.0,90,0.00,,,0.00,JAVA,2014-01-28 22:44:00,
2014-01-28 17:49:00,69.2,66.1,30.01,SE,135,0.0,0.0,91,0.00,,,0.00,JAVA,2014-01-28 22:49:00,
2014-01-28 17:54:00,69.2,66.2,30.02,SE,135,0.0,0.0,91,0.00,,,0.00,JAVA,2014-01-28 22:54:00,
2014-01-28 17:59:00,69.1,66.2,30.01,West,270,0.0,0.0,91,0.00,,,0.00,JAVA,2014-01-28 22:59:00,
2014-01-28 18:04:00,69.0,66.3,30.01,SE,135,0.0,0.0,90,0.00,,,0.00,JAVA,2014-01-28 23:04:00,
2014-01-28 18:09:00,68.9,66.3,30.02,South,180,0.0,0.0,90,0.00,,,0.00,JAVA,2014-01-28 23:09:00,
2014-01-28 18:14:00,68.9,66.2,30.01,SSE,157,0.0,0.0,90,0.00,,,0.00,JAVA,2014-01-28 23:14:00,
2014-01-28 18:19:00,68.9,66.2,30.02,SSE,157,0.0,0.0,89,0.00,,,0.00,JAVA,2014-01-28 23:19:00,
2014-01-28 18:24:00,69.0,66.1,30.01,South,180,0.0,0.0,89,0.00,,,0.00,JAVA,2014-01-28 23:24:00,
2014-01-28 18:29:00,69.1,66.0,30.02,SE,135,0.0,0.0,89,0.00,,,0.00,JAVA,2014-01-28 23:29:00,
2014-01-28 18:34:00,69.2,65.9,30.02,ESE,112,0.0,0.0,88,0.00,,,0.00,JAVA,2014-01-28 23:34:00,
2014-01-28 18:39:00,69.1,65.8,30.02,SW,225,0.0,0.0,88,0.00,,,0.00,JAVA,2014-01-28 23:39:00,
2014-01-28 18:44:00,69.0,65.7,30.02,SE,135,0.0,0.0,87,0.00,,,0.00,JAVA,2014-01-28 23:44:00,
2014-01-28 18:49:00,68.9,65.6,30.02,SW,225,0.0,0.0,87,0.00,,,0.00,JAVA,2014-01-28 23:49:00,
2014-01-28 18:54:00,68.9,65.5,30.02,South,180,0.0,0.0,87,0.00,,,0.00,JAVA,2014-01-28 23:54:00,
2014-01-28 18:59:00,69.0,65.4,30.02,West,270,0.0,0.0,87,0.00,,,0.00,JAVA,2014-01-28 23:59:00,
2014-01-28 19:05:00,69.2,65.3,30.01,SW,225,0.0,0.0,87,0.00,,,0.00,JAVA,2014-01-29 00:05:00,
2014-01-28 19:10:00,69.5,65.2,30.02,South,180,0.0,0.0,86,0.00,,,0.00,JAVA,2014-01-29 00:10:00,
2014-01-28 19:15:00,69.6,65.2,30.02,SE,135,0.0,0.0,86,0.00,,,0.00,JAVA,2014-01-29 00:15:00,
2014-01-28 19:20:00,69.6,65.2,30.02,ESE,112,0.0,0.0,86,0.00,,,0.00,JAVA,2014-01-29 00:20:00,
2014-01-28 19:25:00,69.6,65.2,30.02,SW,225,0.0,0.0,86,0.00,,,0.00,JAVA,2014-01-29 00:25:00,
2014-01-28 19:29:00,69.5,65.2,30.03,SW,225,0.0,0.0,86,0.00,,,0.00,JAVA,2014-01-29 00:29:00,
2014-01-28 19:34:00,69.4,65.2,30.03,SW,225,0.0,0.0,86,0.00,,,0.00,JAVA,2014-01-29 00:34:00,
2014-01-28 19:39:00,69.2,65.3,30.03,SW,225,0.0,0.0,86,0.00,,,0.00,JAVA,2014-01-29 00:39:00,
2014-01-28 19:44:00,69.1,65.3,30.03,WSW,247,0.0,0.0,86,0.00,,,0.00,JAVA,2014-01-29 00:44:00,
2014-01-28 19:49:00,69.0,65.3,30.02,South,180,0.0,0.0,87,0.00,,,0.00,JAVA,2014-01-29 00:49:00,
2014-01-28 19:54:00,69.0,65.2,30.02,South,180,0.0,0.0,87,0.00,,,0.00,JAVA,2014-01-29 00:54:00,
2014-01-28 19:59:00,68.9,65.2,30.02,SW,225,0.0,0.0,87,0.00,,,0.00,JAVA,2014-01-29 00:59:00,
2014-01-28 20:04:00,68.9,65.1,30.03,WSW,247,0.0,0.0,87,0.00,,,0.00,JAVA,2014-01-29 01:04:00,
2014-01-28 20:09:00,68.8,65.1,30.03,SSW,202,0.0,0.0,87,0.00,,,0.00,JAVA,2014-01-29 01:09:00,
2014-01-28 20:14:00,68.6,65.1,30.04,SSW,202,0.0,0.0,88,0.00,,,0.00,JAVA,2014-01-29 01:14:00,
2014-01-28 20:19:00,68.2,65.0,30.04,SSW,202,0.0,0.0,88,0.00,,,0.00,JAVA,2014-01-29 01:19:00,
2014-01-28 20:24:00,67.8,64.9,30.03,SSW,202,0.0,0.0,89,0.00,,,0.00,JAVA,2014-01-29 01:24:00,
2014-01-28 20:29:00,67.4,64.9,30.04,SSW,202,0.0,0.0,89,0.00,,,0.00,JAVA,2014-01-29 01:29:00,
2014-01-28 20:34:00,67.2,64.8,30.04,SSW,202,0.0,0.0,89,0.00,,,0.00,JAVA,2014-01-29 01:34:00,
2014-01-28 20:39:00,66.9,64.6,30.04,SSW,202,0.0,0.0,89,0.00,,,0.00,JAVA,2014-01-29 01:39:00,
2014-01-28 20:44:00,66.9,64.5,30.04,SSW,202,0.0,0.0,90,0.00,,,0.00,JAVA,2014-01-29 01:44:00,
2014-01-28 20:49:00,66.8,64.3,30.04,SSW,202,0.0,0.0,90,0.00,,,0.00,JAVA,2014-01-29 01:49:00,
2014-01-28 20:54:00,66.5,64.2,30.05,SSW,202,0.0,0.0,90,0.00,,,0.00,JAVA,2014-01-29 01:54:00,
2014-01-28 20:59:00,66.4,64.0,30.05,SSW,202,0.0,0.0,90,0.00,,,0.00,JAVA,2014-01-29 01:59:00,
2014-01-28 21:04:00,66.5,63.9,30.05,SSW,202,0.0,0.0,90,0.00,,,0.00,JAVA,2014-01-29 02:04:00,
2014-01-28 21:09:00,66.8,63.8,30.05,WSW,247,0.0,0.0,91,0.00,,,0.00,JAVA,2014-01-29 02:09:00,
2014-01-28 21:14:00,66.8,63.8,30.05,SW,225,0.0,0.0,91,0.00,,,0.00,JAVA,2014-01-29 02:14:00,
2014-01-28 21:20:00,67.0,63.8,30.05,SW,225,0.0,0.0,91,0.00,,,0.00,JAVA,2014-01-29 02:20:00,
2014-01-28 21:25:00,67.1,63.9,30.04,SW,225,0.0,0.0,91,0.00,,,0.00,JAVA,2014-01-29 02:25:00,
2014-01-28 21:30:00,67.1,63.9,30.05,SW,225,0.0,0.0,91,0.00,,,0.00,JAVA,2014-01-29 02:30:00,
2014-01-28 21:35:00,67.2,64.0,30.05,SW,225,0.0,0.0,91,0.00,,,0.00,JAVA,2014-01-29 02:35:00,
2014-01-28 21:40:00,67.4,64.2,30.05,SW,225,0.0,0.0,91,0.00,,,0.00,JAVA,2014-01-29 02:40:00,
2014-01-28 21:45:00,67.8,64.4,30.05,West,270,0.0,0.0,92,0.00,,,0.00,JAVA,2014-01-29 02:45:00,
2014-01-28 21:50:00,68.0,64.6,30.05,SW,225,0.0,0.0,92,0.00,,,0.00,JAVA,2014-01-29 02:50:00,
2014-01-28 21:55:00,68.1,64.8,30.04,SW,225,0.0,0.0,93,0.00,,,0.00,JAVA,2014-01-29 02:55:00,
2014-01-28 22:00:00,68.2,65.1,30.04,SW,225,0.0,0.0,93,0.00,,,0.00,JAVA,2014-01-29 03:00:00,
2014-01-28 22:05:00,68.0,65.3,30.04,SW,225,0.0,0.0,94,0.00,,,0.00,JAVA,2014-01-29 03:05:00,
2014-01-28 22:10:00,67.8,65.5,30.04,SW,225,0.0,0.0,94,0.00,,,0.00,JAVA,2014-01-29 03:10:00,
2014-01-28 22:15:00,67.4,65.7,30.04,WSW,247,0.0,0.0,95,0.00,,,0.00,JAVA,2014-01-29 03:15:00,
2014-01-28 22:20:00,67.2,65.9,30.03,SW,225,0.0,0.0,95,0.00,,,0.00,JAVA,2014-01-29 03:20:00,
2014-01-28 22:25:00,67.0,65.9,30.03,SW,225,0.0,0.0,95,0.00,,,0.00,JAVA,2014-01-29 03:25:00,
2014-01-28 22:30:00,66.9,66.0,30.04,SW,225,0.0,0.0,96,0.00,,,0.00,JAVA,2014-01-29 03:30:00,
2014-01-28 22:35:00,66.7,66.0,30.04,SW,225,0.0,0.0,96,0.00,,,0.00,JAVA,2014-01-29 03:35:00,
2014-01-28 22:40:00,66.4,65.9,30.05,SW,225,0.0,0.0,96,0.00,,,0.00,JAVA,2014-01-29 03:40:00,
2014-01-28 22:45:00,66.1,65.8,30.04,SW,225,0.0,0.0,96,0.00,,,0.00,JAVA,2014-01-29 03:45:00,
2014-01-28 22:50:00,66.0,65.6,30.05,SW,225,0.0,0.0,96,0.00,,,0.00,JAVA,2014-01-29 03:50:00,
2014-01-28 22:55:00,65.6,65.5,30.05,SW,225,0.0,0.0,96,0.00,,,0.00,JAVA,2014-01-29 03:55:00,
2014-01-28 23:00:00,65.5,65.3,30.05,SW,225,0.0,0.0,96,0.00,,,0.00,JAVA,2014-01-29 04:00:00,
2014-01-28 23:05:00,65.4,65.1,30.04,SW,225,0.0,0.0,96,0.00,,,0.00,JAVA,2014-01-29 04:05:00,
2014-01-28 23:10:00,65.2,65.0,30.04,SW,225,0.0,0.0,96,0.00,,,0.00,JAVA,2014-01-29 04:10:00,
2014-01-28 23:15:00,65.0,64.8,30.05,SW,225,0.0,0.0,96,0.00,,,0.00,JAVA,2014-01-29 04:15:00,
2014-01-28 23:20:00,65.0,64.6,30.05,SW,225,0.0,0.0,96,0.00,,,0.00,JAVA,2014-01-29 04:20:00,
2014-01-28 23:25:00,64.9,64.4,30.05,SW,225,0.0,0.0,96,0.00,,,0.00,JAVA,2014-01-29 04:25:00,
2014-01-28 23:30:00,64.9,64.2,30.04,SW,225,0.0,0.0,96,0.00,,,0.00,JAVA,2014-01-29 04:30:00,
2014-01-28 23:35:00,64.9,64.1,30.04,SW,225,0.0,0.0,96,0.00,,,0.00,JAVA,2014-01-29 04:35:00,
2014-01-28 23:40:00,64.6,64.0,30.04,SW,225,0.0,0.0,96,0.00,,,0.00,JAVA,2014-01-29 04:40:00,
2014-01-28 23:45:00,64.4,63.9,30.04,SW,225,0.0,0.0,97,0.00,,,0.00,JAVA,2014-01-29 04:45:00,
2014-01-28 23:50:00,64.2,63.8,30.04,SW,225,0.0,0.0,97,0.00,,,0.00,JAVA,2014-01-29 04:50:00,
2014-01-28 23:55:00,64.1,63.7,30.04,SW,225,0.0,0.0,97,0.00,,,0.00,JAVA,2014-01-29 04:55:00,